Location: Landeleau
(48.2273°N, 3.7285°W)
Time: 08:50:11
(UTC+00:00)

Cosmos 1943 Rocket - Pass Details

Date: 30 March 2020
Orbit: 812 x 844 km, 71.0° (Epoch: 23 May)

Event Time Altitude Azimuth Distance (km) Brightness Sun altitude
Rises 19:52:32 0° 334° (NNW) 3,351 6.1 -12.1°
Reaches altitude 10° 19:55:00 10° 338° (NNW) 2,419 5.2 -12.4°
Maximum altitude 20:00:27 58° 58° (ENE) 953 2.3 -13.3°
Enters shadow 20:04:32 18° 133° (SE) 1,914 3.5 -13.9°
